Home > Weather > Montego Bay > Past weeks

Flag for Jamaica Past Weather in Montego Bay, Jamaica — Yesterday and Last 2 Weeks

Now
73 °F

Sprinkles. Broken clouds.


Feels Like: 68 °F
Forecast: 78 / 89 °F
Wind: 3 mph from Southwest

Location: Montego Bay / Sangster

Current Time: Aug 29, 2016 at 2:58:45 PM

Latest Report: Aug 29, 2016 at 2:00 PM


Visibility: N/A

Pressure: 29.92 "Hg

Humidity: 100%

Dew Point: 73 °F

Location of Montego BayLocation

Past Weather in Montego Bay — Graph

°F

Montego Bay Temperature Yesterday

Maximum temperature yesterday: 86 °F (at 12:00 PM)
Minimum temperature yesterday: 75 °F (at 2:00 PM)
Average temperature yesterday: 79 °F

High & Low Weather Summary for the Past Weeks

 TemperatureHumidityPressure
High90 °F (Aug 14, 1:00 PM)100% (Aug 27, 3:00 PM)30.01 "Hg (Aug 27, 3:00 PM)
Low73 °F (Aug 27, 3:00 PM)66% (Aug 15, 4:00 PM)29.77 "Hg (Aug 25, 4:00 PM)
Average83 °F80%29.91 "Hg
* Reported Aug 14 1:00 PM — Aug 29 1:00 PM, Montego Bay, Weather by CustomWeather, © 2016

Note: Actual official high and low records may vary slightly from our data, if they occured in-between our weather recording intervals... More about our weather records

Advertising

Montego Bay Weather History for the Previous 24 Hours

Scroll right to see more
 ConditionsComfort  
Time TempWeatherWind HumidityBarometerVisibility
1:00 PM
Mon, Aug 29
73 °FThunderstorms. Partly sunny.10 mph94%29.95 "Hg5 mi
12:00 PM90 °FPartly sunny.6 mph71%29.92 "HgN/A
11:00 AM84 °FPassing clouds.5 mph79%29.92 "HgN/A
10:00 AM84 °FPassing clouds.2 mph84%29.92 "HgN/A
9:00 AM84 °FScattered clouds.2 mph79%29.92 "HgN/A
8:00 AM81 °FPassing clouds.5 mph84%29.92 "HgN/A
7:00 AM79 °FPassing clouds.5 mph84%29.89 "HgN/A
6:00 AM79 °FPassing clouds.3 mph84%29.86 "HgN/A
5:00 AM79 °FPassing clouds.1 mph84%29.86 "HgN/A
4:00 AM77 °FPassing clouds.3 mph89%29.83 "HgN/A
3:00 AM79 °FPassing clouds.2 mph89%29.86 "HgN/A
1:00 AM77 °FWarm.5 mph89%29.86 "HgN/A
12:00 AM77 °FThundershowers. Passing clouds.2 mph89%29.89 "HgN/A
11:00 PM
Sun, Aug 28
77 °FThundershowers. Passing clouds.2 mph94%29.89 "HgN/A
10:00 PM77 °FThundershowers. Passing clouds.5 mph89%29.89 "HgN/A
9:00 PM77 °FThundershowers. Passing clouds.3 mph89%29.89 "HgN/A
8:00 PM77 °FThundershowers. Passing clouds.5 mph89%29.86 "HgN/A
7:00 PM77 °FThundershowers. Passing clouds.5 mph94%29.86 "HgN/A
6:00 PM77 °FSprinkles. Partly sunny.3 mph94%29.83 "HgN/A
5:00 PM77 °FPartly sunny.2 mph94%29.83 "HgN/A
4:00 PM75 °FThunderstorms. Partly sunny.6 mph100%29.83 "HgN/A
3:00 PM77 °FThunderstorms. Partly sunny.7 mph94%29.89 "Hg5 mi
2:00 PM75 °FThunderstorms. Partly sunny.5 mph94%29.89 "HgN/A
Weather by CustomWeather, © 2016

See weather overviewHow to use our weather pages